sat.trackr.live / text

‹ back to catalog

STARLINK-30819

NORAD 58179 · 2023-167E

PAYLOAD ACTIVE UNKNOWN

§ Identity

Operator
Country
US
Launch date
2023-10-30
Launch site
AFETR
Launch vehicle
Mass (kg)
RCS (m²)

Purposes: comms

External: N2YO · Heavens-Above · Gunter

§ Orbital elements

Epoch: 2026-05-25T04:24:21.889152Z

Period
94.27 min
Inclination
43.0044°
Eccentricity
0.0001273
Mean motion
15.27591209 rev/d
Perigee alt
482.1 km
Apogee alt
483.9 km
Semi-major
6,861.2 km
B*
-8.6310e-5
RAAN
71.4221°
Arg perigee
271.3673°
Mean anomaly
88.7033°
Rev number
14,268

§ Raw data

STARLINK-308191 58179U 23167E   26145.18358668 -.00002637  00000+0 -86310-4 0  99932 58179  43.0044  71.4221 0001273 271.3673  88.7033 15.27591209142687

JSON: /api/v1/satellites/58179 · /tle

For live sub-satellite position, see the globe view (requires WebGL).

§ Visibility from observer

Set your observer location to see the next 7 days of passes ≥ 10°. The values pass through the URL so the page stays shareable.

No JS? Fill the form by hand. The geolocation button needs JavaScript.